Home   Weather   Menominee   Past weeks

Flag for USA Past Weather in Menominee, Michigan, USA — Yesterday and Last 2 Weeks

38 °F


Feels Like: 35 °F
Forecast: 39 / 51 °F
Wind: 3 mph from Northwest

Location: Menominee Weather Reporting Station

Current Time: Oct 23, 2016 at 4:41:41 AM

Latest Report: Oct 23, 2016 at 3:56 AM

Visibility: 10 mi

Pressure: 30.01 "Hg

Humidity: 93%

Dew Point: 36 °F

Location of MenomineeLocation

Past Weather in Menominee — Graph


Menominee Temperature Yesterday

Maximum temperature yesterday: 53 °F (at 3:56 PM)
Minimum temperature yesterday: 31 °F (at 3:56 AM)
Average temperature yesterday: 42 °F

High & Low Weather Summary for the Past Weeks

High75 °F (Oct 17, 3:56 PM)100% (Oct 14, 5:56 AM)30.51 "Hg (Oct 14, 5:56 AM)
Low29 °F (Oct 14, 3:56 AM)40% (Oct 19, 4:56 PM)29.32 "Hg (Oct 17, 9:56 PM)
Average52 °F78%30.08 "Hg
* Reported Oct 8 2:56 AM — Oct 23 2:56 AM, Menominee, Weather by CustomWeather, © 2016

Note: Actual official high and low records may vary slightly from our data, if they occured in-between our weather recording intervals... More about our weather records


Menominee Weather History for the Previous 24 Hours

Scroll right to see more
Time TempWeatherWind HumidityBarometerVisibility
2:56 AM
Sun, Oct 23
40 °FClear.5 mph89%30.03 "Hg10 mi
1:56 AM40 °FClear.3 mph93%30.02 "Hg10 mi
12:56 AM41 °FClear.No wind89%30.01 "Hg10 mi
11:56 PM
Sat, Oct 22
43 °FClear.3 mph86%30.01 "Hg10 mi
10:56 PM41 °FClear.No wind89%30.01 "Hg10 mi
9:56 PM39 °FClear.No wind96%30.01 "Hg10 mi
8:56 PM41 °FClear.No wind93%30.01 "Hg10 mi
7:56 PM43 °FClear.No wind89%30.01 "Hg10 mi
6:56 PM44 °FClear.No wind82%30.01 "Hg10 mi
5:56 PM50 °FClear.No wind61%30.01 "Hg10 mi
4:56 PM53 °FClear.7 mph55%30.01 "Hg10 mi
3:56 PM53 °FPassing clouds.8 mph55%30.02 "Hg10 mi
2:56 PM52 °FMostly cloudy.8 mph55%30.02 "Hg10 mi
1:56 PM51 °FPartly sunny.9 mph56%30.03 "Hg10 mi
12:56 PM49 °FMostly cloudy.10 mph57%30.06 "Hg10 mi
11:56 AM49 °FPartly sunny.5 mph57%30.10 "Hg10 mi
10:56 AM44 °FOvercast.5 mph68%30.11 "Hg10 mi
9:56 AM43 °FOvercast.3 mph68%30.13 "Hg10 mi
8:56 AM38 °FOvercast.No wind97%30.13 "Hg10 mi
7:56 AM34 °FMostly cloudy.No wind97%30.14 "Hg10 mi
6:56 AM31 °FSunny.No wind96%30.15 "Hg10 mi
5:56 AM32 °FPassing clouds.No wind92%30.15 "Hg10 mi
4:56 AM32 °FClear.No wind96%30.15 "Hg10 mi
Weather by CustomWeather, © 2016

See weather overviewHow to use our weather pages